Regional Weather Roundup
Issued by NWS

Home | Current Version | Previous Version | Graphics & Text | Print | Product List | Glossary On
Versions: 1 2 3 4 5 6 7 8 9 10 11 12 13 14 15 16 17 18 19 20 21 22 23 24 25 26 27 28 29 30 31 32 33 34 35 36 37 38 39 40 41 42 43 44 45 46 47 48 49
000
ASUS45 KCYS 021810
RWRWY

WYOMING REGIONAL WEATHER ROUNDUP
NATIONAL WEATHER SERVICE CHEYENNE WY
1200 PM MDT THU JUL 02 2015

NOTE:  "FAIR" INDICATES FEW OR NO CLOUDS BELOW 12,000 FEET
WITH NO SIGNIFICANT WEATHER AND/OR OBSTRUCTIONS TO VISIBILITY.

WYZ001-021900-
YELLOWSTONE NATIONAL PARK

CITY           SKY/WX    TMP DP  RH WIND       PRES   REMARKS
LK YELLOWSTONE   N/A     72  47  40 SE7       30.36F
6HR MIN TEMP:  44; 6HR MAX TEMP:  72;

W YELLOWSTONE  NOT AVBL

$$
WYZ002>013-054>058-071-098>099-021900-
NORTHERN WYOMING

CITY           SKY/WX    TMP DP  RH WIND       PRES   REMARKS
JACKSON        SUNNY     75  52  43 SW5       30.24F
CODY           FAIR      75  52  43 NE12      30.22S
GREYBULL       FAIR      82  51  34 CALM      30.12F
6HR MIN TEMP:  67; 6HR MAX TEMP:  82;

WORLAND        FAIR      78  54  43 SW5       30.14F
6HR MIN TEMP:  61; 6HR MAX TEMP:  79;

SHERIDAN       FAIR      80  55  42 VRB5      30.17S
6HR MIN TEMP:  56; 6HR MAX TEMP:  80;

BUFFALO        FAIR      74  57  55 NE9       30.23S
6HR MIN TEMP:  59; 6HR MAX TEMP:  75;

GILLETTE       PTSUNNY   75  56  51 N12       30.18S
6HR MIN TEMP:  57; 6HR MAX TEMP:  76; 6HR PCP: TRACE;

NEWCASTLE      NOT AVBL

$$
WYZ014>020-022>026-101>103-021900-
CENTRAL WYOMING

CITY           SKY/WX    TMP DP  RH WIND       PRES   REMARKS
BIG PINEY      FAIR      79  49  34 S13       30.30F
6HR MIN TEMP:  49; 6HR MAX TEMP:  79;

PINEDALE       FAIR      77  46  33 SW3       30.32S
DUBOIS         NOT AVBL
LANDER         FAIR      78  52  40 E8        30.23F
6HR MIN TEMP:  60; 6HR MAX TEMP:  78;

RIVERTON       FAIR      77  48  35 E9        30.23F
6HR MIN TEMP:  60; 6HR MAX TEMP:  77;

CASPER         FAIR      78  48  34 MISG      30.21F
6HR MIN TEMP:  55; 6HR MAX TEMP:  78;

DOUGLAS        FAIR      79  51  37 VRB6G21   30.19F
6HR MIN TEMP:  60; 6HR MAX TEMP:  80;


$$
WYZ021-027>030-104>119-021900-
SOUTHERN WYOMING

CITY           SKY/WX    TMP DP  RH WIND       PRES   REMARKS
EVANSTON       FAIR      83  39  21 CALM      30.29S
6HR MIN TEMP:  57; 6HR MAX TEMP:  83;

FORT BRIDGER   CLEAR     82  41  23 CALM      30.31F
ROCK SPRINGS   FAIR      78  50  37 E12       30.28F
6HR MIN TEMP:  58; 6HR MAX TEMP:  78;

RAWLINS        FAIR      74  53  48 SE8       30.29S
6HR MIN TEMP:  57; 6HR MAX TEMP:  74;

LARAMIE        PTSUNNY   71  51  49 VRB5      30.31F
6HR MIN TEMP:  53; 6HR MAX TEMP:  72;

CHEYENNE       FAIR      75  49  39 N7        30.25S
6HR MIN TEMP:  54; 6HR MAX TEMP:  76;

TORRINGTON     FAIR      83  48  29 N10G17    30.13S
6HR MIN TEMP:  59; 6HR MAX TEMP:  84;


$$



USA.gov is the U.S. government's official web portal to all federal, state and local government web resources and services.